This demonstration page uses our WeatherBlox Daily Observations layout. Learn more.

Left ArrowRight Arrow

Hourly Observations for June 11, 2020

Temp ( °F °C ) Dew Point ( °F °C ) Humidity (%) Winds ( mph kmh ) Pressure ( in mb ) Visibility ( mi km ) Precip ( " mm )
12:09 am 00:09 Mostly Cloudy 75 23.9 72 22.2 90 90 SSW 5 7 29.98 1015 10 16 0.00 0.00
12:16 am 00:16 Mostly Cloudy 75 23.9 72 22.2 90 90 SW 3 6 29.98 1015 10 16 0.00 0.00
12:53 am 00:53 Cloudy 75 23.9 72 22.2 90 90 SW 5 7 29.98 1015 10 16 0.00 0.00
1:53 am 01:53 Cloudy 76 24.4 73 22.8 91 91 WNW 10 17 30.00 1016 10 16 0.00 0.00
2:00 am 02:00 Cloudy 75 23.9 68 20 79 79 NNW 17 28 30.00 1016 10 16 0.00 0.00
2:09 am 02:09 Cloudy 74 23.3 66 18.9 76 76 NW 9 15 30.00 1016 10 16 0.00 0.00
2:33 am 02:33 Cloudy with Heavy Rain 70 21.1 67 19.4 90 90 VRB 5 7 30.01 1016 3 4 0.09 2.29
2:40 am 02:40 Cloudy with Light Rain 71 21.7 66 18.9 84 84 Calm 30.01 1016 6 10 0.09 2.29
2:53 am 02:53 Cloudy 71 21.7 66 18.9 84 84 Calm 30.01 1016 10 16 0.09 2.29
3:53 am 03:53 Cloudy 70 21.1 67 19.4 90 90 SW 3 6 30.02 1017 10 16 0.03 0.76
4:53 am 04:53 Mostly Cloudy 69 20.6 65 18.3 87 87 VRB 5 7 30.03 1017 10 16 0.00 0.00
5:53 am 05:53 Clear 68 20 64 17.8 87 87 Calm 30.04 1017 10 16 0.00 0.00
6:53 am 06:53 Sunny 66 18.9 62 16.7 87 87 NNW 3 6 30.06 1018 10 16 0.00 0.00
7:53 am 07:53 Sunny 68 20 62 16.7 81 81 NW 3 6 30.08 1019 10 16 0.00 0.00
8:53 am 08:53 Sunny 70 21.1 61 16.1 73 73 NW 10 17 30.09 1019 10 16 0.00 0.00
9:53 am 09:53 Sunny 72 22.2 62 16.7 71 71 NNW 6 9 30.11 1020 10 16 0.00 0.00
10:53 am 10:53 Sunny 75 23.9 62 16.7 64 64 VRB 3 6 30.10 1019 10 16 0.00 0.00
11:53 am 11:53 Mostly Sunny 77 25 61 16.1 58 58 W 7 11 30.10 1019 10 16 0.00 0.00
12:53 pm 12:53 Sunny 78 25.6 61 16.1 56 56 VRB 5 7 30.11 1020 10 16 0.00 0.00
1:53 pm 13:53 Sunny 80 26.7 61 16.1 52 52 W 6 9 30.10 1019 10 16 0.00 0.00
2:53 pm 14:53 Sunny 82 27.8 63 17.2 53 53 N 12 19 30.09 1019 10 16 0.00 0.00
3:53 pm 15:53 Mostly Sunny 82 27.8 63 17.2 53 53 NW 15 24 30.08 1019 10 16 0.00 0.00
4:53 pm 16:53 Mostly Sunny 82 27.8 62 16.7 51 51 NW 9 15 30.08 1019 10 16 0.00 0.00
5:53 pm 17:53 Sunny 82 27.8 62 16.7 51 51 NNW 7 11 30.08 1019 10 16 0.00 0.00
6:53 pm 18:53 Sunny 81 27.2 61 16.1 51 51 NNW 9 15 30.08 1019 10 16 0.00 0.00
7:53 pm 19:53 Sunny 79 26.1 60 15.6 52 52 NNW 6 9 30.09 1019 10 16 0.00 0.00
8:53 pm 20:53 Clear 76 24.4 59 15 56 56 NW 6 9 30.10 1019 10 16 0.00 0.00
9:53 pm 21:53 Clear 74 23.3 58 14.4 57 57 NW 5 7 30.11 1020 10 16 0.00 0.00
10:53 pm 22:53 Clear 72 22.2 57 13.9 59 59 Calm 30.12 1020 10 16 0.00 0.00
11:53 pm 23:53 Clear 70 21.1 57 13.9 64 64 Calm 30.11 1020 10 16 0.00 0.00

Powered by AerisWeather